OBJECT Y, 62399

Orbit data source: Space-Track

You're viewing an Uncataloged Satellite

Recently launched and/or uncataloged satellites may have evolving metadata. Metadata may include but not limited to: Owner, Maufacturer, Bus, Motor, and Mission.

OBJECT Y, 62399 is a satellite in LEO that was launched on Sat, 21 Dec 2024 UTC via an FALCON 9 launch vehicle from the Air Force Western Test Range (AFWTR). Unknown objects in Earth's orbit typically refer to objects detected orbiting the Earth but have not yet been identified or cataloged. These objects could be anything from previously untracked satellites, spent rocket stages, debris from satellite collisions, or even natural meteoroids temporarily captured by Earth's gravity.

Loading next visibility...
Identifier
62399, 2024-247Y
Orbit
LEO
Country
Flag of TBDTBD
Related business
None
Manufacturer
Unknown
Mission
Operational Commercial Communications
Bus & Motor
Unknown
Mass
Unknown
Launch date (UTC)
2024-12-21 (10 months ago)
Launch vehicle
FALCON 9
Launch site
Air Force Western Test Range (AFWTR)
Object type
Unknown
Shape & HBR
Box, 0.0 m
Radar Cross Section
0.004 m², Small (<0.1 m²)

Expand to show TLE details & history
Last TLE update: 15 hours ago

TLE from 15 hours ago
0 OBJECT Y
1 62399U 24247Y   25297.82242737  .00028115  00000-0  87216-3 0  9992
2 62399  45.0005 126.5615 0008870 239.3691 120.6320 15.32929703 47104
Epoch: 2025-10-24T19:44Z
TLE epoch observation values (Epoch: 2025-10-24T19:44:17.724Z)
Latitude
-0.00002°
Longitude
157.02581°
Altitude
470.173 km
Speed
7.631 km/s
True Right ascension
08h 26m 14s
True Declination
0° 00' 00"
Sunlit
Object was in daylight at epoch
Visualization orbit readout
Latitude
Unknown
Longitude
Unknown
Altitude
Unknown
Speed
Unknown
Apparent Right ascension
Unknown
Apparent Declination
Unknown
Sunlit
N/A
Visualization observer readout
Local Sidereal Time
06:10:01
Azimuth
Unknown
Elevation
Unknown
Doppler factor
Unknown
Orbital elements
Apogee altitude
474.763 km
Perigee altitude
462.617 km
Semi-major axis
6,846.827 km
Eccentricity
0.00089
Inclination
45.0005°
RAAN
126.5615°
Arg. of periapsis
239.3691°
True anomaly
120.71941°
Mean anomaly
120.632°
Eccentric anomaly
120.67571°
Mean motion
3.83097 °/min
Orbital period
93.97 mins
BSTAR
0.00087216
Loading maneuver chart data...
Computing Atmospheric mass density...
Loading historical data...
Loading historical data...
Loading historical data...
Loading historical data...
Loading historical data...
Loading historical data...
Loading historical data...

Documentation

Showing up to 5 results
|